This demonstration page uses our WeatherBlox Daily Observations layout. Learn more.

Hourly Observations for August 24, 2019

Temp ( °F °C ) Dew Point ( °F °C ) Humidity (%) Winds ( mph kmh ) Pressure ( in mb ) Visibility ( mi km ) Precip ( " mm )
12:15 am 00:15 Cloudy 69 20.7 69 20.3 98 98 ESE 13 20 29.97 1015 10 16.09344 0 0
12:35 am 00:35 Cloudy 69 20.6 68 20.2 98 98 ESE 14 22 29.97 1015 10 16.09344 0 0
12:55 am 00:55 Cloudy 69 20.5 68 20.1 98 98 ESE 10 17 29.97 1015 10 16.09344 0 0
1:15 am 01:15 Cloudy 69 20.6 68 20.2 98 98 ESE 10 17 29.97 1015 10 16.09344 0 0
1:35 am 01:35 Cloudy 69 20.6 68 20.2 98 98 SE 10 17 29.97 1015 10 16.09344 0 0
1:55 am 01:55 Cloudy 69 20.6 68 20.2 98 98 ESE 12 19 29.97 1015 10 16.09344 0 0
2:15 am 02:15 Cloudy 69 20.6 68 20.2 98 98 ESE 14 22 29.97 1015 10 16.09344 0 0
2:35 am 02:35 Cloudy 69 20.6 68 20.2 98 98 ESE 10 17 29.97 1015 10 16.09344 0 0
2:55 am 02:55 Cloudy with Nearby Thunderstorms 69 20.5 68 20.1 98 98 ESE 13 20 29.97 1015 10 16.09344 0 0
3:15 am 03:15 Cloudy with Heavy Rain 68 20.1 68 20 99 99 SE 20 31 29.97 1015 2.5 4.02336 0.21 5.334
3:35 am 03:35 Cloudy 68 20.1 68 20.1 100 100 ESE 7 11 29.97 1015 7 11.265408 0.43 10.922
3:55 am 03:55 Cloudy with Thunderstorms 68 20.1 68 20.1 100 100 ESE 10 17 29.97 1015 10 16.09344 0.43 10.922
4:15 am 04:15 Cloudy with Nearby Thunderstorms 68 20.1 68 20.1 100 100 SSE 9 15 29.97 1015 10 16.09344 0 0
4:35 am 04:35 Cloudy 68 20.2 68 20.1 99 99 SE 12 19 29.97 1015 10 16.09344 0 0
4:55 am 04:55 Cloudy with Rain 68 20 68 19.8 99 99 SE 13 20 30 1016 10 16.09344 0 0
5:15 am 05:15 Cloudy 68 20 68 20 100 100 SE 12 19 30 1016 10 16.09344 0 0
5:35 am 05:35 Cloudy 68 20 68 19.9 99 99 ESE 9 15 30 1016 10 16.09344 0 0
5:55 am 05:55 Cloudy 68 20 68 20 100 100 SE 12 19 29.94 1014 10 16.09344 0 0
6:15 am 06:15 Cloudy 68 20 68 20 100 100 SE 7 11 30 1016 10 16.09344 0 0
6:35 am 06:35 Cloudy 68 20 68 20 100 100 SE 12 19 30 1016 10 16.09344 0 0
6:55 am 06:55 Cloudy with Light Rain 68 20.1 68 20 99 99 S 7 11 29.97 1015 10 16.09344 0 0
7:15 am 07:15 Cloudy with Light Rain 68 20 68 20 100 100 SSE 6 9 30 1016 7 11.265408 0.02 0.508
7:35 am 07:35 Cloudy with Rain 68 19.8 68 19.8 100 100 Calm 30 1016 7 11.265408 0.05 1.27
7:55 am 07:55 Cloudy with Heavy Rain 67 19.7 67 19.6 99 99 SE 3 6 30 1016 3 4.828032 0.17 4.318
8:15 am 08:15 Cloudy with Rain 63 17.1 62 16.6 97 97 N 8 13 30 1016 5 8.04672 0.11 2.794
8:35 am 08:35 Cloudy with Heavy Rain 62 16.5 62 16.5 100 100 Calm 30.03 1017 5 8.04672 0.17 4.318
8:55 am 08:55 Cloudy with Heavy Rain 62 16.5 61 16.1 98 98 Calm 30.03 1017 1.5 2.414016 0.49 12.446
9:15 am 09:15 Cloudy with Rain 62 16.5 62 16.5 100 100 SE 6 9 30.03 1017 5 8.04672 0.1 2.54
9:35 am 09:35 Cloudy with Rain 62 16.6 62 16.6 100 100 SE 12 19 29.97 1015 5 8.04672 0.16 4.064
9:55 am 09:55 Cloudy with Rain 63 17.1 62 16.9 99 99 ESE 6 9 29.97 1015 7 11.265408 0.22 5.588
10:15 am 10:15 Cloudy with Light Rain 63 17.1 62 16.6 97 97 E 9 15 29.94 1014 10 16.09344 0.01 0.254
10:35 am 10:35 Cloudy 63 17.1 63 17 99 99 ESE 13 20 29.94 1014 10 16.09344 0.01 0.254
10:55 am 10:55 Cloudy with Light Drizzle 64 17.6 63 17.1 97 97 SSE 3 6 29.97 1015 10 16.09344 0.01 0.254
11:15 am 11:15 Mostly Cloudy with Light Rain 65 18.5 64 17.6 95 95 Calm 30 1016 10 16.09344 0.01 0.254
11:35 am 11:35 Partly Cloudy 66 18.7 64 17.5 93 93 E 3 6 30 1016 10 16.09344 0.01 0.254
11:55 am 11:55 Partly Cloudy 67 19.4 65 18.1 92 92 ESE 6 9 29.97 1015 10 16.09344 0.01 0.254
12:15 pm 12:15 Sunny 68 20.2 64 17.9 87 87 E 7 11 29.94 1014 10 16.09344 0 0
12:35 pm 12:35 Mostly Cloudy 69 20.8 65 18.3 86 86 ESE 8 13 29.94 1014 10 16.09344 0 0
12:55 pm 12:55 Cloudy 71 21.5 67 19.2 87 87 SE 6 9 29.94 1014 10 16.09344 0 0
1:15 pm 13:15 Cloudy 72 22.2 68 19.8 86 86 SE 9 15 29.94 1014 10 16.09344 0 0
1:35 pm 13:35 Cloudy 73 22.5 68 20.2 87 87 SSE 10 17 29.91 1013 10 16.09344 0 0
1:55 pm 13:55 Cloudy 74 23.3 69 20.7 85 85 SSE 12 19 29.88 1012 10 16.09344 0 0
2:15 pm 14:15 Mostly Cloudy 73 23 69 20.4 85 85 SSE 9 15 29.91 1013 10 16.09344 0 0
2:35 pm 14:35 Mostly Cloudy 74 23.3 69 20.5 84 84 SE 12 19 29.88 1012 10 16.09344 0 0
2:55 pm 14:55 Cloudy 75 23.8 70 21 84 84 SE 10 17 29.88 1012 10 16.09344 0 0
3:15 pm 15:15 Cloudy 75 23.9 70 21 84 84 SE 12 19 29.88 1012 10 16.09344 0 0
3:35 pm 15:35 Cloudy 75 23.9 70 20.9 83 83 SSE 12 19 29.88 1012 10 16.09344 0 0
3:55 pm 15:55 Cloudy 75 24 70 20.9 83 83 SE 14 22 29.88 1012 10 16.09344 0 0
4:15 pm 16:15 Cloudy 76 24.2 69 20.6 80 80 SSE 14 22 29.88 1012 10 16.09344 0 0
4:35 pm 16:35 Mostly Cloudy 77 24.8 69 20.8 79 79 ESE 13 20 29.85 1011 10 16.09344 0 0
4:55 pm 16:55 Mostly Cloudy 75 23.8 69 20.7 83 83 SE 12 19 29.85 1011 10 16.09344 0 0
5:15 pm 17:15 Mostly Cloudy with Nearby Thunderstorms 74 23.6 69 20.4 82 82 SE 13 20 29.85 1011 10 16.09344 0 0
5:35 pm 17:35 Cloudy 74 23.1 68 20.2 84 84 SE 10 17 29.85 1011 10 16.09344 0 0
5:55 pm 17:55 Mostly Cloudy with Thunderstorms 73 23 69 20.5 86 86 SE 14 22 29.83 1010 10 16.09344 0 0
6:15 pm 18:15 Mostly Cloudy 73 22.6 69 20.3 87 87 SE 12 19 29.88 1012 10 16.09344 0 0
6:35 pm 18:35 Cloudy 73 22.6 69 20.4 87 87 SE 10 17 29.88 1012 10 16.09344 0 0
6:55 pm 18:55 Cloudy with Nearby Thunderstorms 73 22.5 69 20.5 89 89 SE 14 22 29.88 1012 10 16.09344 0 0
7:15 pm 19:15 Cloudy with Nearby Thunderstorms 72 22.2 69 20.3 89 89 ESE 12 19 29.88 1012 10 16.09344 0 0
7:35 pm 19:35 Cloudy 72 22 69 20.4 91 91 ESE 14 22 29.85 1011 10 16.09344 0 0
7:55 pm 19:55 Cloudy 71 21.8 69 20.5 92 92 ESE 10 17 29.88 1012 10 16.09344 0 0
8:15 pm 20:15 Cloudy with Nearby Thunderstorms 71 21.5 69 20.4 93 93 ESE 12 19 29.88 1012 10 16.09344 0 0
8:35 pm 20:35 Cloudy 70 21.1 69 20.5 96 96 ESE 15 24 29.88 1012 10 16.09344 0 0
8:55 pm 20:55 Cloudy 69 20.7 69 20.5 99 99 ESE 12 19 29.88 1012 7 11.265408 0.06 1.524
9:15 pm 21:15 Cloudy 69 20.3 68 20.2 99 99 ESE 14 22 29.88 1012 7 11.265408 0.09 2.286
9:35 pm 21:35 Cloudy with Light Thunderstorms 68 20.2 68 20.1 99 99 SE 12 19 29.88 1012 10 16.09344 0.1 2.54
9:55 pm 21:55 Cloudy with Rain 68 20 68 20 100 100 SE 8 13 29.88 1012 10 16.09344 0.1 2.54
10:15 pm 22:15 Cloudy with Light Thunderstorms 68 20 68 20 100 100 ESE 9 15 29.91 1013 7 11.265408 0.02 0.508
10:35 pm 22:35 Cloudy 68 19.8 68 19.8 100 100 ENE 3 6 29.88 1012 4 6.437376 0.11 2.794
10:55 pm 22:55 Cloudy with Nearby Thunderstorms 67 19.7 67 19.7 100 100 Calm 29.88 1012 5 8.04672 0.17 4.318
11:15 pm 23:15 Cloudy with Rain 67 19.6 67 19.6 100 100 SSE 9 15 29.85 1011 7 11.265408 0.03 0.762
11:35 pm 23:35 Cloudy with Rain 65 18.6 64 17.8 95 95 SSE 7 11 29.88 1012 10 16.09344 0.06 1.524
11:55 pm 23:55 Cloudy 65 18.1 64 17.5 96 96 SSE 14 22 29.88 1012 10 16.09344 0.1 2.54

Powered by AerisWeather